Flag for U.S.A. Weather past 2 weeks in Baton Rouge, Louisiana, U.S.A.

Now
95 °F

Passing clouds.


Feels Like: 106 °F
Forecast: 78 / 96 °F
Wind: 8 mph from Northeast

Location: Baton Rouge Metropolitan - Ryan Field

Current Time: Jul 29, 2015 at 12:58:59 PM

Latest Report: Jul 29, 2015 at 11:53 AM


Visibility: 10 mi

Pressure: 30.03 "Hg

Humidity: 51%

Dew point: 74 °F

Location of Baton RougeLocation

Historic Weather in Baton Rouge — Graph

°F

Baton Rouge temperature yesterday

Maximum temperature yesterday: 97 °F (at 3:53 PM)
Minimum temperature yesterday: 75 °F (at 4:53 AM)
Average temperature yesterday: 86 °F

Past Weeks' High & Low Weather Summary

 TemperatureHumidityPressure
High97 °F (Jul 20, 12:53 PM)94% (Jul 26, 6:53 AM)30.08 "Hg (Jul 26, 6:53 AM)
Low75 °F (Jul 25, 8:53 PM)39% (Jul 27, 4:53 PM)29.83 "Hg (Jul 14, 6:53 PM)
Average86 °F69%29.96 "Hg
* Reported Jul 14 10:53 AM — Jul 29 10:53 AM, Baton Rouge, Weather by CustomWeather, © 2015

Note: Actual official high and low records may vary slightly from our data, if they occured in-between our weather recording intervals... More about our weather records

Advertising

Baton Rouge weather history for previous 24 hours

 ConditionsComfort  
Time TempWeatherWind HumidityBarometerVisibility
10:53 AM
Wed, Jul 29
91 °FSunny.7 mph60%30.04 "Hg10 mi
9:53 AM89 °FSunny.6 mph65%30.04 "Hg10 mi
8:53 AM85 °FSunny.7 mph75%30.05 "Hg10 mi
7:53 AM82 °FSunny.7 mph82%30.04 "Hg10 mi
6:53 AM80 °FClear.7 mph85%30.02 "Hg10 mi
5:53 AM80 °FClear.3 mph85%30.00 "Hg10 mi
4:53 AM79 °FClear.5 mph88%29.99 "Hg10 mi
3:53 AM79 °FClear.3 mph88%29.98 "Hg10 mi
2:53 AM79 °FClear.No wind88%29.98 "Hg10 mi
1:53 AM80 °FClear.7 mph85%29.99 "Hg10 mi
12:53 AM81 °FClear.5 mph79%30.01 "Hg10 mi
11:53 PM
Tue, Jul 28
82 °FClear.7 mph74%30.00 "Hg10 mi
10:53 PM82 °FClear.5 mph77%29.98 "Hg10 mi
9:53 PM82 °FClear.No wind77%29.97 "Hg10 mi
8:53 PM84 °FSunny.No wind72%29.95 "Hg10 mi
7:53 PM88 °FSunny.No wind63%29.94 "Hg10 mi
6:53 PM95 °FPassing clouds.No wind43%29.93 "Hg10 mi
5:53 PM95 °FSunny.No wind41%29.94 "Hg10 mi
4:53 PM97 °FPassing clouds.3 mph40%29.95 "Hg10 mi
3:53 PM97 °FPartly sunny.No wind40%29.97 "Hg10 mi
2:53 PM96 °FSunny.3 mph43%29.98 "Hg10 mi
1:53 PM94 °FPartly sunny.3 mph46%30.00 "Hg10 mi
12:53 PM93 °FPartly sunny.3 mph49%30.00 "Hg10 mi
Weather by CustomWeather, © 2015

See weather overviewHow to use our weather pages